AFL7710 UIII-ZLXN

Flight info

Callsign AFL7710
Flight time N/A
Altitude 38000
Route ULTUK4C ULTUK G909 LETBI/K0807S1160 B480 MORIT/K0809S1190 DCT UPVOP UPV19A
Aircraft B738/M-SDE2E3FGHIRWXY/LB1

Departure

Time 2026-05-07 14:14
Airport Irkutsk International Airport (UIII)

Arrival

Time N/A
Airport Xining Caojiabao International Airport (ZLXN)
Time Latitude Longitude Altitude Speed Heading
2026-05-07 13:32 52.26601 104.38131 1618 ft 0 kts 218°
2026-05-07 14:03 52.26600 104.38130 1618 ft 1 kts 218°
2026-05-07 14:03 52.26599 104.38128 1618 ft 0 kts 218°
2026-05-07 14:03 52.26598 104.38127 1617 ft 0 kts 222°
2026-05-07 14:04 52.26598 104.38125 1617 ft 0 kts 236°
2026-05-07 14:04 52.26599 104.38122 1626 ft 0 kts 260°
2026-05-07 14:04 52.26601 104.38119 1625 ft 0 kts 292°
2026-05-07 14:04 52.26603 104.38117 1624 ft 0 kts 315°
2026-05-07 14:06 52.26615 104.38101 1621 ft 5 kts 320°
2026-05-07 14:07 52.26668 104.38080 1620 ft 10 kts 20°
2026-05-07 14:07 52.26723 104.38137 1618 ft 4 kts 37°
2026-05-07 14:07 52.26724 104.38139 1618 ft 0 kts 37°
2026-05-07 14:07 52.26724 104.38140 1618 ft 0 kts 37°
2026-05-07 14:08 52.26725 104.38140 1619 ft 0 kts 37°
2026-05-07 14:08 52.26735 104.38151 1621 ft 4 kts 30°
2026-05-07 14:09 52.26768 104.38136 1615 ft 6 kts 312°
2026-05-07 14:09 52.26794 104.38057 1616 ft 10 kts 295°
2026-05-07 14:09 52.26830 104.37923 1617 ft 16 kts 293°
2026-05-07 14:09 52.26881 104.37731 1607 ft 20 kts 294°
2026-05-07 14:10 52.26939 104.37513 1603 ft 21 kts 293°
2026-05-07 14:10 52.26993 104.37310 1597 ft 17 kts 297°
2026-05-07 14:10 52.27024 104.37272 1598 ft 0 kts 350°
2026-05-07 14:11 52.27025 104.37274 1597 ft 0 kts
2026-05-07 14:11 52.27027 104.37281 1603 ft 0 kts 52°
2026-05-07 14:11 52.27032 104.37290 1602 ft 2 kts 52°
2026-05-07 14:11 52.27044 104.37317 1596 ft 4 kts 53°
2026-05-07 14:12 52.27064 104.37363 1597 ft 6 kts 54°
2026-05-07 14:12 52.27091 104.37425 1600 ft 9 kts 55°
2026-05-07 14:12 52.27132 104.37520 1599 ft 10 kts 53°
2026-05-07 14:12 52.27168 104.37600 1601 ft 7 kts 56°
2026-05-07 14:13 52.27182 104.37678 1606 ft 10 kts 94°
2026-05-07 14:13 52.27104 104.38010 1613 ft 69 kts 113°
2026-05-07 14:13 52.26802 104.39143 1633 ft 146 kts 112°
2026-05-07 14:13 52.26311 104.40970 1832 ft 197 kts 115°
2026-05-07 14:14 52.25790 104.42980 3024 ft 193 kts 113°
2026-05-07 14:14 52.24923 104.44611 3883 ft 205 kts 152°
2026-05-07 14:14 52.23457 104.44963 4148 ft 230 kts 194°
2026-05-07 14:14 52.22103 104.43534 4498 ft 241 kts 232°
2026-05-07 14:15 52.21179 104.41214 5042 ft 247 kts 238°
2026-05-07 14:15 52.20196 104.38835 5452 ft 262 kts 234°
2026-05-07 14:15 52.19059 104.36423 6000 ft 274 kts 231°
2026-05-07 14:15 52.17812 104.34063 6877 ft 275 kts 228°
2026-05-07 14:16 52.16501 104.31785 7741 ft 277 kts 226°
2026-05-07 14:16 52.15130 104.29552 8552 ft 281 kts 224°
2026-05-07 14:16 52.13707 104.27341 9352 ft 284 kts 223°
2026-05-07 14:16 52.12249 104.25145 10131 ft 288 kts 223°
2026-05-07 14:17 52.10725 104.22901 10529 ft 307 kts 222°
2026-05-07 14:17 52.09065 104.20496 10737 ft 331 kts 221°
2026-05-07 14:17 52.07308 104.17979 11250 ft 342 kts 221°
2026-05-07 14:17 52.05507 104.15421 11974 ft 345 kts 221°
2026-05-07 14:18 52.03691 104.12854 12751 ft 348 kts 221°
2026-05-07 14:18 52.01854 104.10266 13456 ft 351 kts 221°
2026-05-07 14:18 51.99997 104.07657 14173 ft 355 kts 221°
2026-05-07 14:18 51.98113 104.05016 14813 ft 360 kts 221°
2026-05-07 14:19 51.96203 104.02342 15481 ft 364 kts 221°
2026-05-07 14:19 51.94283 103.99657 16151 ft 366 kts 221°
2026-05-07 14:19 51.92341 103.96944 16768 ft 371 kts 221°
2026-05-07 14:19 51.90378 103.94206 17382 ft 374 kts 221°
2026-05-07 14:20 51.88423 103.91481 17992 ft 377 kts 221°
2026-05-07 14:20 51.86420 103.88694 18583 ft 381 kts 221°
2026-05-07 14:20 51.84402 103.85888 19137 ft 385 kts 221°
2026-05-07 14:20 51.82362 103.83055 19710 ft 388 kts 221°
2026-05-07 14:21 51.80305 103.80202 20263 ft 391 kts 221°
2026-05-07 14:21 51.78230 103.77326 20785 ft 395 kts 221°
2026-05-07 14:21 51.76136 103.74429 21301 ft 398 kts 221°
2026-05-07 14:21 51.74026 103.71515 21827 ft 400 kts 220°
2026-05-07 14:22 51.71704 103.69032 22324 ft 403 kts 204°
2026-05-07 14:22 51.69001 103.67847 22823 ft 405 kts 186°
2026-05-07 14:22 51.66181 103.67463 23292 ft 408 kts 184°
2026-05-07 14:22 51.63328 103.67171 23685 ft 413 kts 184°
2026-05-07 14:23 51.60444 103.66895 24084 ft 417 kts 184°
2026-05-07 14:23 51.57526 103.66606 24418 ft 422 kts 184°
2026-05-07 14:23 51.54583 103.66296 24798 ft 425 kts 184°
2026-05-07 14:23 51.51618 103.65968 25172 ft 428 kts 184°
2026-05-07 14:24 51.48642 103.65628 25568 ft 430 kts 184°
2026-05-07 14:24 51.45645 103.65280 25944 ft 432 kts 184°
2026-05-07 14:24 51.42644 103.64929 26377 ft 433 kts 184°
2026-05-07 14:24 51.39632 103.64577 26784 ft 434 kts 184°
2026-05-07 14:25 51.36608 103.64224 27097 ft 438 kts 184°
2026-05-07 14:25 51.33545 103.63867 27333 ft 442 kts 184°
2026-05-07 14:25 51.30470 103.63509 27659 ft 444 kts 184°
2026-05-07 14:25 51.27375 103.63151 27908 ft 448 kts 184°
2026-05-07 14:26 51.24253 103.62789 28152 ft 451 kts 184°
2026-05-07 14:26 51.21117 103.62427 28431 ft 453 kts 184°
2026-05-07 14:26 51.18010 103.62068 28706 ft 454 kts 184°
2026-05-07 14:26 51.14849 103.61703 28968 ft 456 kts 184°
2026-05-07 14:27 51.11683 103.61339 29282 ft 457 kts 184°
2026-05-07 14:27 51.08475 103.60970 29608 ft 457 kts 184°
2026-05-07 14:27 51.05336 103.60609 29860 ft 459 kts 184°
2026-05-07 14:27 51.02138 103.60243 30024 ft 463 kts 184°
2026-05-07 14:28 50.98907 103.59876 30182 ft 466 kts 184°
2026-05-07 14:28 50.95675 103.59511 30535 ft 465 kts 184°
2026-05-07 14:28 50.92450 103.59146 30815 ft 465 kts 184°
2026-05-07 14:28 50.89219 103.58782 31129 ft 465 kts 184°
2026-05-07 14:29 50.85997 103.58417 31476 ft 463 kts 184°
2026-05-07 14:29 50.82782 103.58052 31804 ft 463 kts 184°
2026-05-07 14:29 50.79566 103.57687 32052 ft 464 kts 184°
2026-05-07 14:29 50.76353 103.57323 32409 ft 462 kts 184°
2026-05-07 14:30 50.73154 103.56961 32700 ft 461 kts 184°
2026-05-07 14:30 50.69952 103.56599 32997 ft 460 kts 184°
2026-05-07 14:30 50.66762 103.56239 33336 ft 459 kts 184°
2026-05-07 14:30 50.63582 103.55881 33657 ft 457 kts 184°
2026-05-07 14:31 50.60406 103.55523 33873 ft 458 kts 184°
2026-05-07 14:31 50.57218 103.55165 34088 ft 459 kts 184°
2026-05-07 14:31 50.54033 103.54808 34320 ft 459 kts 184°
2026-05-07 14:31 50.50896 103.54457 34660 ft 457 kts 184°
2026-05-07 14:32 50.47690 103.54098 34942 ft 455 kts 184°
2026-05-07 14:32 50.44576 103.53750 35202 ft 454 kts 184°
2026-05-07 14:32 50.41428 103.53398 35490 ft 453 kts 184°
2026-05-07 14:32 50.38283 103.53048 35691 ft 453 kts 184°
2026-05-07 14:33 50.35127 103.52696 35794 ft 456 kts 184°
2026-05-07 14:33 50.31965 103.52345 35988 ft 456 kts 184°
2026-05-07 14:33 50.28804 103.51994 36304 ft 453 kts 184°
2026-05-07 14:33 50.25666 103.51646 36507 ft 453 kts 184°
2026-05-07 14:34 50.22507 103.51296 36589 ft 456 kts 184°
2026-05-07 14:34 50.19346 103.50947 36778 ft 455 kts 184°
2026-05-07 14:34 50.16186 103.50618 37014 ft 454 kts 184°
2026-05-07 14:34 50.13036 103.50307 37198 ft 454 kts 184°
2026-05-07 14:35 50.09880 103.50002 37320 ft 455 kts 184°
2026-05-07 14:35 50.03536 103.49389 37598 ft 456 kts 184°
2026-05-07 14:35 50.00367 103.49081 37753 ft 456 kts 184°
2026-05-07 14:36 49.97196 103.48771 37870 ft 456 kts 184°
2026-05-07 14:36 49.94044 103.48463 37972 ft 453 kts 184°
2026-05-07 14:36 49.90897 103.48154 37995 ft 454 kts 184°
2026-05-07 14:37 49.84576 103.47537 38011 ft 456 kts 184°
2026-05-07 14:37 49.75106 103.46614 38003 ft 457 kts 184°
2026-05-07 14:38 49.68753 103.45997 37991 ft 458 kts 184°
2026-05-07 14:38 49.62382 103.45381 38007 ft 459 kts 184°
2026-05-07 14:39 49.56013 103.44766 38006 ft 459 kts 184°
2026-05-07 14:39 49.49644 103.44153 38000 ft 458 kts 184°
2026-05-07 14:40 49.43291 103.43542 38004 ft 457 kts 184°
2026-05-07 14:40 49.36955 103.42935 37992 ft 455 kts 184°
2026-05-07 14:41 49.30646 103.42333 37995 ft 453 kts 184°
2026-05-07 14:41 49.24370 103.41734 37999 ft 451 kts 184°
2026-05-07 14:42 49.18107 103.41138 38002 ft 450 kts 184°
2026-05-07 14:42 49.11899 103.40552 37996 ft 450 kts 184°
2026-05-07 14:43 49.05656 103.39965 38005 ft 450 kts 184°
2026-05-07 14:43 48.99400 103.39378 38008 ft 451 kts 184°
2026-05-07 14:44 48.93123 103.38790 38006 ft 453 kts 184°
2026-05-07 14:44 48.86825 103.38201 38002 ft 454 kts 184°
2026-05-07 14:45 48.80499 103.37609 38003 ft 456 kts 184°
2026-05-07 14:45 48.74148 103.37014 38012 ft 457 kts 184°
2026-05-07 14:46 48.67789 103.36420 38000 ft 459 kts 184°
2026-05-07 14:46 48.61421 103.35827 38006 ft 459 kts 184°
2026-05-07 14:47 48.55084 103.35240 37998 ft 458 kts 184°
2026-05-07 14:47 48.48688 103.34652 37990 ft 457 kts 184°
2026-05-07 14:48 48.42387 103.34074 38005 ft 456 kts 184°
2026-05-07 14:48 48.36064 103.33495 37999 ft 455 kts 184°
2026-05-07 14:49 48.29756 103.32918 37997 ft 453 kts 184°
2026-05-07 14:49 48.23461 103.32344 37999 ft 453 kts 184°
2026-05-07 14:50 48.17172 103.31772 38000 ft 452 kts 184°
2026-05-07 14:50 48.10890 103.31202 38005 ft 453 kts 184°
2026-05-07 14:51 48.04588 103.30632 38008 ft 453 kts 184°
2026-05-07 14:51 47.98278 103.30062 38004 ft 454 kts 184°
2026-05-07 14:52 47.91999 103.29497 38005 ft 455 kts 184°
2026-05-07 14:52 47.85674 103.28927 38003 ft 456 kts 184°
2026-05-07 14:53 47.79343 103.28356 37998 ft 456 kts 184°
2026-05-07 14:53 47.73010 103.27786 37997 ft 456 kts 184°
2026-05-07 14:54 47.66680 103.27218 38005 ft 455 kts 184°
2026-05-07 14:54 47.60352 103.26651 37999 ft 455 kts 184°
2026-05-07 14:55 47.54036 103.26087 37999 ft 454 kts 184°
2026-05-07 14:55 47.48788 103.25620 37999 ft 454 kts 184°
2026-05-07 14:56 47.42481 103.25059 38002 ft 453 kts 184°
2026-05-07 14:56 47.36180 103.24500 38001 ft 453 kts 184°
2026-05-07 14:57 47.29881 103.23944 38001 ft 453 kts 184°
2026-05-07 14:57 47.23624 103.23394 37997 ft 454 kts 184°
2026-05-07 14:58 47.17318 103.22842 38005 ft 454 kts 184°
2026-05-07 14:58 47.11010 103.22291 38003 ft 454 kts 184°
2026-05-07 14:59 47.04689 103.21740 38001 ft 455 kts 184°
2026-05-07 14:59 46.98360 103.21189 38002 ft 456 kts 184°
2026-05-07 15:00 46.92017 103.20638 38000 ft 457 kts 184°
2026-05-07 15:00 46.85672 103.20089 38002 ft 457 kts 184°